Location: East Guldeford
(50.9500°N, 0.7500°E)
Time: 17:57:42
(UTC+00:00)

USA 215 - Pass Details

Date: 12 May 2021
Orbit: 1100 x 1107 km, 123.0° (Epoch: 14 June)

Event Time Altitude Azimuth Distance (km) Brightness Sun altitude
Rises 22:28:55 0° 98° (E) 3,915 5.9 -18.2°
Reaches altitude 10° 22:31:24 10° 96° (E) 2,958 5.3 -18.4°
Maximum altitude 22:37:50 64° 17° (NNE) 1,216 3.7 -18.7°
Drops below altitude 10° 22:44:17 10° 298° (WNW) 2,966 6.1 -19.0°
Sets 22:46:47 0° 295° (WNW) 3,925 6.8 -19.1°
